Location: Gouy
(50.0008°N, 3.2556°E)
Time: 02:06:43
(UTC+00:00)

Cosmos 2278 - Pass Details

Date: 23 May 2024
Orbit: 837 x 853 km, 71.1° (Epoch: 21 June)

Event Time Altitude Azimuth Distance (km) Brightness Sun altitude
Rises 00:32:30 0° 332° (NNW) 3,431 7.7 -18.5°
Reaches altitude 10° 00:35:01 10° 337° (NNW) 2,493 6.9 -18.5°
Maximum altitude 00:40:40 57° 56° (NE) 1,002 4.3 -18.2°
Drops below altitude 10° 00:46:17 10° 135° (SE) 2,480 5.9 -18.0°
Enters shadow 00:46:59 - 136° (SE) 2,740 6.1 -18.0°
